Lexington Weather

Lexington, Massachusetts, USA

28°F
12/12/2019 4:14pm 
  • Lexington Conditions: Partly cloudy
  • Temperature: 27.9°F / -2.3°CColder 1.6°F than last hour.
  • Dew Point: 19.8°FDecreased 0.5°Fsince last hour.
  • Relative Humidity: 71%Increased 3.0% since last hour.
  • Wind: Wind from WSW WSW 1 mph, 10-min avg: 1 mph, gust: 4 mph
  • Barometer: 30.66 in Steady
  • Visibility: 10 miles
  • Snow Today: 0.0 in
  •   

Regional Weather Roundup
for Boston / Norton, MA

        
000
ASUS41 KBOX 112201
RWRBOX

REGIONAL WEATHER ROUNDUP
NATIONAL WEATHER SERVICE BOSTON/NORTON MA
500 PM EST WED DEC 11 2019

NOTE:  "FAIR" INDICATES FEW OR NO CLOUDS BELOW 12,000 FEET WITH NO 
SIGNIFICANT WEATHER AND/OR OBSTRUCTIONS TO VISIBILITY.

MAZALL-112300-
EASTERN MASSACHUSETTS
  
CITY           SKY/WX    TMP DP  RH WIND       PRES   REMARKS
BOSTON         FAIR      34  18  52 W8        30.24R WCI  27          
BEVERLY        FAIR      29  23  78 W5        30.22R WCI  24          
LAWRENCE       FAIR      29  21  72 SW6       30.24R WCI  23          
BEDFORD        FAIR      27  22  81 SW5       30.22R WCI  22          
BLUE HILL        N/A     25  21  85 W10       30.20R WCI  15          
NORWOOD        FAIR      31  22  69 SW3       30.24R                  
MARSHFIELD     NOT AVBL                                               
PLYMOUTH       FAIR      27  25  92 W6        30.23R WCI  20          
TAUNTON        FAIR      27  22  81 S3        30.24R                  
NEW BEDFORD    FAIR      28  21  75 W5        30.24R WCI  23          
$$

MAZALL-112300-
CAPE COD AND THE ISLANDS
  
CITY           SKY/WX    TMP DP  RH WIND       PRES   REMARKS
FALMOUTH       NOT AVBL                                               
HYANNIS        NOT AVBL                                               
CHATHAM        FAIR      30  29  96 W5        30.24R WCI  25          
PROVINCETOWN   MOCLDY    30  26  85 W9        30.24R WCI  22          
NANTUCKET      FAIR      31  27  85 W7        30.25R WCI  24          
MARTHAS VNYRD  FAIR      29  25  85 CALM      30.25R                  
$$
 
MAZALL-112300-
CENTRAL AND WESTERN MASSACHUSETTS
  
CITY           SKY/WX    TMP DP  RH WIND       PRES   REMARKS
WORCESTER      FAIR      24  18  77 SW9       30.18R WCI  14          
FITCHBURG      FAIR      29  19  66 SW5       30.21R WCI  24          
ORANGE         FAIR      31  16  54 SW7       30.22R WCI  24          
SPRINGFIELD    NOT AVBL                                               
WESTFIELD      FAIR      30  19  63 SW6       30.23R WCI  24          
NORTH ADAMS    FAIR      26  17  68 CALM      30.21R                  
PITTSFIELD     MOCLDY    27  20  75 SW6       30.17R WCI  20          
$$
 
RIZALL-112300-
RHODE ISLAND
  
CITY           SKY/WX    TMP DP  RH WIND       PRES   REMARKS
PROVIDENCE     FAIR      31  21  66 SW6       30.26R WCI  25          
NEWPORT        FAIR      32  21  64 W6        30.25R WCI  26          
BLOCK ISLAND   FAIR      29  23  78 W13G18    30.27R WCI  19          
SMITHFIELD     FAIR      25  22  88 W6        30.23R WCI  18          
WESTERLY       FAIR      29  21  72 CALM      30.27R                  
$$
 
CTZALL-112300-
CONNECTICUT
  
CITY           SKY/WX    TMP DP  RH WIND       PRES   REMARKS
BRADLEY INTL   FAIR      29  22  75 S6        30.24R WCI  23          
HARTFORD       FAIR      33  23  66 SW5       30.26R WCI  29          
BRIDGEPORT     FAIR      35  28  75 W9        30.28R WCI  28          
DANBURY        FAIR      30  27  88 CALM      30.26R                  
GROTON         NOT AVBL                                               
NEW HAVEN      FAIR      37  28  70 W9        30.27R WCI  30          
CHESTER        FAIR      30  25  80 VRB3      30.25R                  
MERIDEN        FAIR      29  25  85 S5        30.27R WCI  24          
WILLIMANTIC    FAIR      26  23  88 CALM      30.26R                  
OXFORD         MOCLDY    28  26  92 W5        30.24R WCI  23          
$$

MEZ002-015-021-024-NHZ003-005-008-011-012-014-VTZ005-008-112300-
NORTHERN NEW ENGLAND
  
CITY           SKY/WX    TMP DP  RH WIND       PRES   REMARKS
PORTLAND ME    FAIR      31  18  58 SW5       30.20R WCI  26          
BANGOR ME      FAIR      21  12  68 CALM      30.18R                  
CONCORD NH     FAIR      29  13  51 S3        30.19R                  
MANCHESTER NH  FAIR      31  19  61 S6        30.19R WCI  25          
NASHUA NH      FAIR      28  24  85 CALM      30.22R                  
PORTSMOUTH NH  PTCLDY    28  20  71 SW5       30.19R WCI  23          
JAFFREY NH     FAIR      25  15  66 S3        30.17R                  
KEENE NH       FAIR      27  16  63 S3        30.21R                  
BURLINGTON VT  MOCLDY    29  13  51 S10       30.12F WCI  20          
MT. WASHINGTON PTCLDY     0 -13  55 W18         N/A  WCI -22          
$$

NYZ052-076-112300-
EASTERN NEW YORK
  
CITY           SKY/WX    TMP DP  RH WIND       PRES   REMARKS
ALBANY         MOCLDY    33  19  56 S7        30.23R WCI  27          
NEW YORK CITY  MOCLDY    38  23  55 W12G22    30.30R WCI  30          
$$
 
ANZALL-112300-
MARINE OBSERVATIONS
  
STATION/POSITION TIME  TEMP    WIND        PRES    VSBY  WAVE
                       AIR SEA DIR/SP/G                  HT/PER
                 (UTC) (F)     (DEG/KT/KT) (MB)    (MI)  (FT/S)
BOSTON BUOY      NOT AVBL
BUZZARDS BAY     2100   33     310/ 11/ 12 1024.4R
NANTUCKET SOUND  NOT AVBL
MASS BAY-STELLWA 2104   33 46  290/  6/ 10 1021.0R  1 7/8  3/11
ISLE OF SHOALS   2100   33     240/ 11/ 13 1021.8R
S OF BLOCK IS    2130      53                N/A           5/ 9
$$

......................KEY.........................
  SKY/WX - SKY CONDITION/PRESENT WEATHER
  TMP    - TEMPERATURE IN FAHRENHEIT
  DWPT   - DEWPOINT IN FAHRENHEIT
  RH     - RELATIVE HUMIDITY IN PERCENT
  WIND   - DIRECTION AND SPEED IN MPH
  PRES   - MEAN SEA LEVEL PRESSURE IN INCHES OF HG
  WCI    - WIND CHILL INDEX
  VSB    - VISIBILITY IN MILES
  HX     - HEAT INDEX
  TC     - TEMPERATURE IN CELSIUS
  VRB    - VARIABLE WIND DIRECTION
  N/A    - NOT AVAILABLE
  
      

Other recent Regional Weather Roundups

Thu Dec 12, 4:01pm

Thu Dec 12, 3:10pm

Thu Dec 12, 3:00pm

Thu Dec 12, 2:10pm

Thu Dec 12, 2:01pm

Thu Dec 12, 1:10pm

Thu Dec 12, 1:00pm

Thu Dec 12, 12:10pm

Thu Dec 12, 12:00pm

Thu Dec 12, 11:10am

Thu Dec 12, 11:00am

Thu Dec 12, 10:10am

Thu Dec 12, 8:10am

Thu Dec 12, 8:00am

Thu Dec 12, 7:10am

Thu Dec 12, 7:00am

Thu Dec 12, 6:10am

Thu Dec 12, 6:00am

Thu Dec 12, 5:10am

Thu Dec 12, 5:00am

Thu Dec 12, 4:10am

Thu Dec 12, 4:00am

Thu Dec 12, 3:10am

Thu Dec 12, 3:00am

Thu Dec 12, 2:10am

Thu Dec 12, 2:00am

Thu Dec 12, 1:10am

Thu Dec 12, 1:00am

Thu Dec 12, 12:10am

Thu Dec 12, 12:00am

Wed Dec 11, 11:10pm

Wed Dec 11, 11:00pm

Wed Dec 11, 10:10pm

Wed Dec 11, 10:00pm

Wed Dec 11, 9:10pm

Wed Dec 11, 9:00pm

Wed Dec 11, 8:10pm

Wed Dec 11, 8:00pm

Wed Dec 11, 7:10pm

Wed Dec 11, 7:00pm

Wed Dec 11, 6:10pm

Wed Dec 11, 6:00pm

Wed Dec 11, 5:10pm

Wed Dec 11, 4:10pm

Wed Dec 11, 4:00pm

Wed Dec 11, 3:10pm

Wed Dec 11, 3:01pm

Wed Dec 11, 2:10pm

Wed Dec 11, 2:00pm

Wed Dec 11, 1:10pm

Wed Dec 11, 1:00pm

Wed Dec 11, 12:10pm

Wed Dec 11, 12:00pm

Wed Dec 11, 11:10am

Wed Dec 11, 11:00am

Wed Dec 11, 10:10am

Wed Dec 11, 10:00am

Wed Dec 11, 9:10am

Wed Dec 11, 9:00am

Wed Dec 11, 8:10am

Wed Dec 11, 8:00am

Wed Dec 11, 7:10am

Wed Dec 11, 7:00am

Wed Dec 11, 6:10am

Wed Dec 11, 6:00am

Wed Dec 11, 5:10am

Wed Dec 11, 5:00am

Wed Dec 11, 4:10am

Wed Dec 11, 4:00am

Wed Dec 11, 3:10am

Wed Dec 11, 3:01am

Wed Dec 11, 2:10am

Wed Dec 11, 2:01am

Wed Dec 11, 1:10am

Wed Dec 11, 1:00am

Wed Dec 11, 12:10am

Wed Dec 11, 12:00am

Tue Dec 10, 11:10pm

Tue Dec 10, 11:00pm

Tue Dec 10, 10:10pm

Tue Dec 10, 10:00pm

Tue Dec 10, 9:10pm

Tue Dec 10, 9:01pm

Tue Dec 10, 8:10pm

Tue Dec 10, 8:00pm

Tue Dec 10, 7:10pm

Tue Dec 10, 7:01pm

Tue Dec 10, 6:10pm

Tue Dec 10, 6:01pm

Tue Dec 10, 5:10pm

Tue Dec 10, 5:00pm

Tue Dec 10, 4:10pm

Tue Dec 10, 4:01pm

Tue Dec 10, 3:10pm

Tue Dec 10, 3:01pm

Tue Dec 10, 2:10pm

Tue Dec 10, 2:01pm

Tue Dec 10, 1:10pm

Tue Dec 10, 1:00pm

Tue Dec 10, 12:10pm

Tue Dec 10, 12:00pm

Tue Dec 10, 11:10am

Tue Dec 10, 11:00am

Tue Dec 10, 10:10am

Tue Dec 10, 10:00am

Tue Dec 10, 9:10am

Tue Dec 10, 9:01am

Tue Dec 10, 8:10am

Tue Dec 10, 8:00am

Tue Dec 10, 7:10am

Tue Dec 10, 7:00am

Tue Dec 10, 6:10am

Tue Dec 10, 6:00am

Tue Dec 10, 5:10am

Tue Dec 10, 5:00am

Tue Dec 10, 4:10am

Tue Dec 10, 4:00am

Tue Dec 10, 3:10am

Tue Dec 10, 3:00am

Tue Dec 10, 2:10am

Tue Dec 10, 2:01am

Tue Dec 10, 1:10am

Tue Dec 10, 1:00am

Tue Dec 10, 12:10am

Tue Dec 10, 12:01am

Mon Dec 9, 11:10pm

Mon Dec 9, 11:01pm

Mon Dec 9, 10:10pm

Mon Dec 9, 10:00pm

Mon Dec 9, 9:10pm

Mon Dec 9, 9:01pm

Mon Dec 9, 8:10pm

Mon Dec 9, 8:01pm

Mon Dec 9, 7:10pm

Mon Dec 9, 7:00pm

Mon Dec 9, 6:10pm

Mon Dec 9, 6:00pm

Mon Dec 9, 5:10pm

Mon Dec 9, 5:01pm

Mon Dec 9, 4:10pm

Meta data:

ID: 917ea4b1-790b-4a40-b2c3-d0cd1a8b9390
Link: https://api.weather.gov/products/917ea4b1-790b-4a40-b2c3-d0cd1a8b9390